FACSAT-1 (43721 NORAD) Tracking and Keplerian Element Data

This shows tracking and keplerian element data for the satellite.

Feedback or suggestion? Click here.




ElementValue
Catalog43721
NameFACSAT-1
Epoch Orbit3448
Epoch Day194.25466272
Epoch Year2019
RAAN264.0799
Inclination97.4587
Eccentricity0.0016496
Argument of Perigee240.5154
Mean Anonmoly119.444
Mean Motion15.26333729
Decay Rate1.079E-05
L11 43721U 18096C 19194.25466272 .00001079 00000-0 44278-4 0 9995
L22 43721 97.4587 264.0799 0016496 240.5154 119.4440 15.26333729 34486

Live tracking and technical data element details for FACSAT-1 (NORAD 43721). FACSAT-1 can be tracked NOW for your location showing map with azimuth and elevation plus other details from your city location.

Track the satellite on the map from your city or location and see movement details for azimuth, elevation, latitude, longitude, range, height, and movement on the map or in text.







IsCatalogInMostPopularTable: catalog: 43721, numindb: 75
Update: records affected: 1



GetName: 43721 FACSAT-1

Hit Count: updated at: Tue, 16 Jul 2019 21:26:30 GMT